| time (UTC) | temp F | wind direction | speed knots | gust knots | rain 1hr in | rain 24hr in | rain mn in | humidity % | barometer mb |
| 20260506203312 | 53 | 19 | 3.5 | 7.0 | 0.00 | 0.00 | 0.00 | 73 | 1012.0 |
| 20260506202811 | 53 | 10 | 3.5 | 7.0 | 0.00 | 0.00 | 0.00 | 72 | 1012.0 |
| 20260506202309 | 53 | 346 | 2.6 | 5.2 | 0.00 | 0.00 | 0.00 | 72 | 1011.9 |
| 20260506201542 | 53 | 10 | 1.7 | 4.3 | 0.00 | 0.00 | 0.00 | 72 | 1011.8 |
| 20260506200810 | 53 | 296 | 1.7 | 2.6 | 0.00 | 0.00 | 0.00 | 72 | 1011.8 |
| 20260506200310 | 54 | 309 | 1.7 | 2.6 | 0.00 | 0.00 | 0.00 | 71 | 1011.8 |
| 20260506195810 | 54 | 309 | 0.9 | 3.5 | 0.00 | 0.00 | 0.00 | 70 | 1011.8 |
| 20260506195311 | 54 | 311 | 0.0 | 3.5 | 0.00 | 0.00 | 0.00 | 69 | 1011.7 |
| 20260506194809 | 54 | 313 | 0.0 | 0.0 | 0.00 | 0.00 | 0.00 | 69 | 1011.6 |
| 20260506194311 | 54 | 355 | 0.0 | 0.0 | 0.00 | 0.00 | 0.00 | 67 | 1011.6 |
| 20260506193306 | 54 | 333 | 1.7 | 4.3 | 0.00 | 0.00 | 0.00 | 67 | 1011.7 |
| 20260506192807 | 54 | 26 | 1.7 | 4.3 | 0.00 | 0.00 | 0.00 | 68 | 1011.7 |
| 20260506191808 | 54 | 34 | 0.9 | 2.6 | 0.00 | 0.00 | 0.00 | 67 | 1011.5 |
| 20260506191531 | 54 | 35 | 0.9 | 2.6 | 0.00 | 0.00 | 0.00 | 67 | 1011.5 |
| 20260506190801 | 54 | 355 | 0.9 | 3.5 | 0.00 | 0.00 | 0.00 | 67 | 1011.3 |
| 20260506190301 | 54 | 19 | 0.9 | 3.5 | 0.00 | 0.00 | 0.00 | 67 | 1011.3 |
| 20260506185801 | 54 | 37 | 0.0 | 2.6 | 0.00 | 0.00 | 0.00 | 67 | 1011.1 |
| 20260506185531 | 54 | 5 | 0.9 | 2.6 | 0.00 | 0.00 | 0.00 | 67 | 1011.2 |
| 20260506184801 | 54 | 0 | 0.9 | 2.6 | 0.00 | 0.00 | 0.00 | 66 | 1011.1 |
| 20260506184302 | 54 | 65 | 1.7 | 2.6 | 0.00 | 0.00 | 0.00 | 66 | 1011.0 |
| 20260506183801 | 54 | 44 | 1.7 | 3.5 | 0.00 | 0.00 | 0.00 | 66 | 1010.9 |
| 20260506183301 | 54 | 74 | 1.7 | 3.5 | 0.00 | 0.00 | 0.00 | 65 | 1010.9 |
| 20260506182255 | 54 | 55 | 0.9 | 2.6 | 0.00 | 0.00 | 0.00 | 65 | 1010.8 |
| 20260506181754 | 55 | 58 | 0.9 | 2.6 | 0.00 | 0.00 | 0.00 | 65 | 1010.7 |
| 20260506181254 | 55 | 101 | 0.9 | 2.6 | 0.00 | 0.00 | 0.00 | 64 | 1010.7 |
| 20260506180750 | 55 | 64 | 0.9 | 2.6 | 0.00 | 0.00 | 0.00 | 64 | 1010.6 |
| 20260506180251 | 55 | 76 | 0.9 | 2.6 | 0.00 | 0.00 | 0.00 | 64 | 1010.6 |
| 20260506175750 | 55 | 81 | 0.9 | 2.6 | 0.00 | 0.00 | 0.00 | 63 | 1010.6 |
| 20260506175251 | 55 | 69 | 1.7 | 4.3 | 0.00 | 0.00 | 0.00 | 64 | 1010.4 |
| 20260506174747 | 55 | 55 | 1.7 | 4.3 | 0.00 | 0.00 | 0.00 | 63 | 1010.4 |
| 20260506174247 | 55 | 49 | 1.7 | 6.1 | 0.00 | 0.00 | 0.00 | 63 | 1010.4 |
| 20260506173749 | 55 | 58 | 2.6 | 6.1 | 0.00 | 0.00 | 0.00 | 63 | 1010.3 |
| 20260506173247 | 55 | 90 | 1.7 | 6.1 | 0.00 | 0.00 | 0.00 | 63 | 1010.2 |
| 20260506172747 | 55 | 61 | 1.7 | 6.1 | 0.00 | 0.00 | 0.00 | 62 | 1010.2 |
| 20260506172248 | 55 | 103 | 1.7 | 6.1 | 0.00 | 0.00 | 0.00 | 62 | 1010.1 |
| 20260506171740 | 55 | 76 | 2.6 | 6.1 | 0.00 | 0.00 | 0.00 | 62 | 1010.0 |
| 20260506171239 | 55 | 61 | 2.6 | 7.0 | 0.00 | 0.00 | 0.00 | 62 | 1010.1 |
| 20260506170740 | 55 | 71 | 2.6 | 7.0 | 0.00 | 0.00 | 0.00 | 62 | 1010.0 |
| 20260506170238 | 55 | 95 | 2.6 | 7.0 | 0.00 | 0.00 | 0.00 | 62 | 1010.0 |
| 20260506165737 | 55 | 93 | 2.6 | 7.0 | 0.00 | 0.00 | 0.00 | 62 | 1010.0 |
| 20260506165238 | 55 | 99 | 3.5 | 7.8 | 0.00 | 0.00 | 0.00 | 62 | 1010.0 |
| 20260506164736 | 55 | 81 | 3.5 | 7.8 | 0.00 | 0.00 | 0.00 | 62 | 1010.0 |
| 20260506164239 | 55 | 93 | 3.5 | 8.7 | 0.00 | 0.00 | 0.00 | 62 | 1010.0 |
| 20260506163737 | 55 | 136 | 4.3 | 8.7 | 0.00 | 0.00 | 0.00 | 62 | 1010.1 |
| 20260506163508 | 56 | 17 | 5.2 | 9.6 | 0.00 | 0.00 | 0.00 | 61 | 1010.1 |
| 20260506162738 | 56 | 67 | 4.3 | 9.6 | 0.00 | 0.00 | 0.00 | 61 | 1010.1 |
| 20260506162237 | 56 | 99 | 4.3 | 10.4 | 0.00 | 0.00 | 0.00 | 61 | 1010.1 |
| 20260506161737 | 56 | 70 | 4.3 | 10.4 | 0.00 | 0.00 | 0.00 | 61 | 1010.0 |
| 20260506161237 | 56 | 80 | 5.2 | 10.4 | 0.00 | 0.00 | 0.00 | 60 | 1010.1 |
| 20260506160737 | 56 | 96 | 4.3 | 10.4 | 0.00 | 0.00 | 0.00 | 60 | 1010.1 |
| 20260506160237 | 56 | 96 | 3.5 | 10.4 | 0.00 | 0.00 | 0.00 | 60 | 1010.1 |
| 20260506155734 | 56 | 73 | 4.3 | 8.7 | 0.00 | 0.00 | 0.00 | 60 | 1010.1 |
| 20260506155233 | 56 | 50 | 4.3 | 8.7 | 0.00 | 0.00 | 0.00 | 59 | 1010.1 |
| 20260506154732 | 56 | 38 | 3.5 | 9.6 | 0.00 | 0.00 | 0.00 | 60 | 1010.0 |
| 20260506154233 | 56 | 66 | 3.5 | 9.6 | 0.00 | 0.00 | 0.00 | 60 | 1010.0 |
| 20260506153733 | 56 | 84 | 3.5 | 10.4 | 0.00 | 0.00 | 0.00 | 61 | 1010.1 |
| 20260506153232 | 55 | 36 | 4.3 | 10.4 | 0.00 | 0.00 | 0.00 | 60 | 1010.0 |
| 20260506152734 | 55 | 97 | 5.2 | 9.6 | 0.00 | 0.00 | 0.00 | 60 | 1010.0 |
| 20260506152233 | 55 | 59 | 6.1 | 10.4 | 0.00 | 0.00 | 0.00 | 59 | 1010.0 |
| 20260506151733 | 55 | 339 | 5.2 | 10.4 | 0.00 | 0.00 | 0.00 | 60 | 1009.9 |
| 20260506151232 | 55 | 28 | 5.2 | 10.4 | 0.00 | 0.00 | 0.00 | 61 | 1010.0 |
| 20260506150735 | 55 | 104 | 4.3 | 10.4 | 0.00 | 0.00 | 0.00 | 61 | 1009.9 |
| 20260506150229 | 55 | 20 | 4.3 | 10.4 | 0.00 | 0.00 | 0.00 | 61 | 1009.9 |
| 20260506145727 | 56 | 72 | 5.2 | 10.4 | 0.00 | 0.00 | 0.00 | 60 | 1009.9 |
| 20260506145457 | 56 | 84 | 5.2 | 10.4 | 0.00 | 0.00 | 0.00 | 61 | 1009.9 |
| 20260506144500 | 56 | 98 | 5.2 | 12.2 | 0.00 | 0.00 | 0.00 | 61 | 1009.9 |
| 20260506143728 | 56 | 64 | 6.1 | 12.2 | 0.00 | 0.00 | 0.00 | 60 | 1009.9 |
| 20260506143227 | 56 | 65 | 6.1 | 13.9 | 0.00 | 0.00 | 0.00 | 59 | 1009.8 |
| 20260506142724 | 56 | 35 | 7.0 | 13.9 | 0.00 | 0.00 | 0.00 | 59 | 1009.8 |
| 20260506142225 | 56 | 73 | 7.8 | 13.9 | 0.00 | 0.00 | 0.00 | 58 | 1009.8 |
| 20260506141724 | 57 | 55 | 7.0 | 14.8 | 0.00 | 0.00 | 0.00 | 57 | 1009.7 |
| 20260506141456 | 57 | 338 | 6.1 | 14.8 | 0.00 | 0.00 | 0.00 | 58 | 1009.8 |
| 20260506140724 | 57 | 13 | 7.0 | 13.0 | 0.00 | 0.00 | 0.00 | 57 | 1009.7 |
| 20260506140222 | 57 | 53 | 7.0 | 13.0 | 0.00 | 0.00 | 0.00 | 56 | 1009.8 |
| 20260506135722 | 57 | 86 | 6.1 | 13.9 | 0.00 | 0.00 | 0.00 | 56 | 1009.7 |
| 20260506135222 | 57 | 69 | 6.1 | 13.9 | 0.00 | 0.00 | 0.00 | 56 | 1009.7 |
| 20260506134720 | 57 | 80 | 6.1 | 13.9 | 0.00 | 0.00 | 0.00 | 54 | 1009.6 |
| 20260506134222 | 57 | 81 | 6.1 | 13.9 | 0.00 | 0.00 | 0.00 | 54 | 1009.6 |
| 20260506133721 | 58 | 51 | 6.1 | 13.9 | 0.00 | 0.00 | 0.00 | 54 | 1009.5 |
| 20260506133221 | 58 | 64 | 5.2 | 13.9 | 0.00 | 0.00 | 0.00 | 54 | 1009.4 |
| 20260506132722 | 58 | 19 | 5.2 | 13.0 | 0.00 | 0.00 | 0.00 | 55 | 1009.5 |
| 20260506132222 | 58 | 27 | 6.1 | 13.0 | 0.00 | 0.00 | 0.00 | 53 | 1009.5 |
| 20260506131721 | 58 | 10 | 4.3 | 11.3 | 0.00 | 0.00 | 0.00 | 55 | 1009.4 |
| 20260506131220 | 58 | 355 | 3.5 | 9.6 | 0.00 | 0.00 | 0.00 | 57 | 1009.4 |
| 20260506130721 | 58 | 13 | 3.5 | 10.4 | 0.00 | 0.00 | 0.00 | 59 | 1009.4 |
| 20260506130452 | 57 | 311 | 4.3 | 10.4 | 0.00 | 0.00 | 0.00 | 60 | 1009.3 |
| 20260506125714 | 57 | 332 | 5.2 | 10.4 | 0.00 | 0.00 | 0.00 | 60 | 1009.2 |
| 20260506125207 | 57 | 74 | 5.2 | 10.4 | 0.00 | 0.00 | 0.00 | 60 | 1009.4 |
| 20260506124707 | 56 | 315 | 5.2 | 10.4 | 0.00 | 0.00 | 0.00 | 65 | 1009.3 |
| 20260506124208 | 56 | 317 | 5.2 | 10.4 | 0.00 | 0.00 | 0.00 | 66 | 1009.1 |
| 20260506123707 | 56 | 320 | 4.3 | 8.7 | 0.00 | 0.00 | 0.00 | 67 | 1009.2 |
| 20260506123207 | 56 | 307 | 4.3 | 8.7 | 0.00 | 0.00 | 0.00 | 68 | 1009.2 |
| 20260506122708 | 55 | 344 | 4.3 | 8.7 | 0.00 | 0.00 | 0.00 | 68 | 1009.1 |
| 20260506122207 | 56 | 15 | 4.3 | 8.7 | 0.00 | 0.00 | 0.00 | 68 | 1009.1 |
| 20260506121708 | 56 | 323 | 5.2 | 9.6 | 0.00 | 0.00 | 0.00 | 69 | 1009.2 |
| 20260506121202 | 56 | 5 | 5.2 | 9.6 | 0.00 | 0.00 | 0.00 | 69 | 1009.1 |
| 20260506120935 | 56 | 336 | 5.2 | 11.3 | 0.00 | 0.00 | 0.00 | 70 | 1009.1 |
| 20260506120204 | 56 | 350 | 5.2 | 11.3 | 0.00 | 0.00 | 0.00 | 70 | 1009.1 |
| 20260506115702 | 56 | 339 | 5.2 | 10.4 | 0.00 | 0.00 | 0.00 | 71 | 1009.0 |
| 20260506115156 | 56 | 355 | 6.1 | 10.4 | 0.00 | 0.00 | 0.00 | 71 | 1009.0 |
| 20260506114415 | 56 | 313 | 7.0 | 12.2 | 0.00 | 0.00 | 0.00 | 70 | 1009.1 |
| 20260506113644 | 56 | 306 | 7.0 | 12.2 | 0.00 | 0.00 | 0.00 | 70 | 1009.1 |
| 20260506113417 | 56 | 332 | 7.0 | 12.2 | 0.00 | 0.00 | 0.00 | 71 | 1009.1 |
| 20260506112647 | 56 | 5 | 6.1 | 11.3 | 0.00 | 0.00 | 0.00 | 71 | 1009.1 |
| 20260506112144 | 57 | 336 | 5.2 | 10.4 | 0.00 | 0.00 | 0.00 | 69 | 1009.1 |
| 20260506111645 | 57 | 347 | 5.2 | 10.4 | 0.00 | 0.00 | 0.00 | 69 | 1009.1 |
| 20260506111159 | 57 | 328 | 6.1 | 11.3 | 0.00 | 0.00 | 0.00 | 70 | 1009.0 |
| 20260506110644 | 58 | 329 | 7.0 | 11.3 | 0.00 | 0.00 | 0.00 | 67 | 1009.0 |
| 20260506110144 | 58 | 5 | 7.0 | 13.9 | 0.00 | 0.00 | 0.00 | 66 | 1008.9 |
| 20260506105644 | 58 | 344 | 7.8 | 13.9 | 0.00 | 0.00 | 0.00 | 66 | 1009.0 |
| 20260506105147 | 59 | 350 | 7.0 | 13.0 | 0.00 | 0.00 | 0.00 | 62 | 1008.9 |
| 20260506104643 | 60 | 331 | 6.1 | 12.2 | 0.00 | 0.00 | 0.00 | 60 | 1008.9 |
| 20260506104145 | 60 | 34 | 6.1 | 10.4 | 0.00 | 0.00 | 0.00 | 59 | 1008.8 |
| 20260506103640 | 60 | 333 | 6.1 | 13.9 | 0.00 | 0.00 | 0.00 | 54 | 1008.8 |
| 20260506103140 | 60 | 323 | 7.0 | 15.6 | 0.00 | 0.00 | 0.00 | 54 | 1008.8 |
| 20260506102911 | 60 | 5 | 7.0 | 15.6 | 0.00 | 0.00 | 0.00 | 55 | 1008.8 |
| 20260506102140 | 60 | 22 | 7.0 | 13.0 | 0.00 | 0.00 | 0.00 | 57 | 1008.7 |
| 20260506101640 | 60 | 90 | 7.8 | 12.2 | 0.00 | 0.00 | 0.00 | 57 | 1008.8 |
| 20260506101142 | 60 | 63 | 7.0 | 12.2 | 0.00 | 0.00 | 0.00 | 57 | 1008.8 |
| 20260506100640 | 60 | 21 | 6.1 | 12.2 | 0.00 | 0.00 | 0.00 | 60 | 1008.8 |
| 20260506100154 | 59 | 311 | 6.1 | 13.0 | 0.00 | 0.00 | 0.00 | 61 | 1008.7 |
| 20260506095910 | 60 | 351 | 6.1 | 13.0 | 0.00 | 0.00 | 0.00 | 60 | 1008.6 |
| 20260506095411 | 60 | 5 | 7.0 | 13.9 | 0.00 | 0.00 | 0.00 | 60 | 1008.7 |
| 20260506094640 | 59 | 5 | 6.1 | 13.9 | 0.00 | 0.00 | 0.00 | 61 | 1008.6 |
| 20260506094139 | 59 | 38 | 6.1 | 14.8 | 0.00 | 0.00 | 0.00 | 61 | 1008.7 |
| 20260506093636 | 59 | 38 | 6.1 | 14.8 | 0.00 | 0.00 | 0.00 | 62 | 1008.6 |
| 20260506093136 | 58 | 67 | 6.1 | 15.6 | 0.00 | 0.00 | 0.00 | 64 | 1008.6 |
| 20260506092635 | 58 | 74 | 6.1 | 15.6 | 0.00 | 0.00 | 0.00 | 63 | 1008.6 |
| 20260506092134 | 58 | 28 | 5.2 | 12.2 | 0.00 | 0.00 | 0.00 | 66 | 1008.6 |
| 20260506091636 | 58 | 355 | 6.1 | 11.3 | 0.00 | 0.00 | 0.00 | 65 | 1008.5 |
| 20260506091134 | 58 | 318 | 7.0 | 15.6 | 0.00 | 0.00 | 0.00 | 65 | 1008.5 |
| 20260506090634 | 58 | 21 | 7.0 | 15.6 | 0.00 | 0.00 | 0.00 | 64 | 1008.4 |
| 20260506090147 | 57 | 22 | 7.0 | 13.0 | 0.00 | 0.00 | 0.00 | 66 | 1008.4 |
| 20260506085905 | 57 | 24 | 7.0 | 13.9 | 0.00 | 0.00 | 0.00 | 66 | 1008.4 |
| 20260506085135 | 57 | 328 | 7.0 | 13.9 | 0.00 | 0.00 | 0.00 | 67 | 1008.3 |
| 20260506084635 | 57 | 334 | 6.1 | 14.8 | 0.00 | 0.00 | 0.00 | 67 | 1008.4 |
| 20260506084135 | 57 | 13 | 6.1 | 14.8 | 0.00 | 0.00 | 0.00 | 68 | 1008.4 |
| 20260506083632 | 57 | 342 | 7.0 | 12.2 | 0.00 | 0.00 | 0.00 | 69 | 1008.3 |
| 20260506083402 | 57 | 28 | 7.0 | 12.2 | 0.00 | 0.00 | 0.00 | 69 | 1008.3 |
| 20260506082631 | 57 | 317 | 6.1 | 11.3 | 0.00 | 0.00 | 0.00 | 71 | 1008.3 |
| 20260506082131 | 56 | 355 | 7.0 | 12.2 | 0.00 | 0.00 | 0.00 | 71 | 1008.3 |
| 20260506081131 | 56 | 0 | 6.1 | 12.2 | 0.00 | 0.00 | 0.00 | 77 | 1008.2 |
| 20260506080630 | 56 | 5 | 7.0 | 12.2 | 0.00 | 0.00 | 0.00 | 79 | 1008.2 |
| 20260506080412 | 56 | 0 | 7.0 | 13.0 | 0.00 | 0.00 | 0.00 | 79 | 1008.2 |
| 20260506073125 | 53 | 9 | 6.1 | 11.3 | 0.00 | 0.00 | 0.00 | 82 | 1008.2 |
| 20260506072625 | 53 | 0 | 6.1 | 12.2 | 0.00 | 0.00 | 0.00 | 83 | 1008.3 |
| 20260506071627 | 53 | 5 | 5.2 | 11.3 | 0.00 | 0.00 | 0.00 | 83 | 1008.2 |
| 20260506071127 | 52 | 331 | 6.1 | 11.3 | 0.00 | 0.00 | 0.00 | 84 | 1008.2 |
| 20260506070628 | 52 | 0 | 6.1 | 11.3 | 0.00 | 0.00 | 0.00 | 83 | 1008.2 |
| 20260506070125 | 52 | 333 | 6.1 | 11.3 | 0.00 | 0.00 | 0.00 | 83 | 1008.1 |
| 20260506062120 | 51 | 350 | 5.2 | 9.6 | 0.00 | 0.00 | 0.00 | 85 | 1007.9 |
| 20260506061119 | 51 | 331 | 5.2 | 10.4 | 0.00 | 0.00 | 0.00 | 86 | 1007.8 |
| 20260506060621 | 51 | 325 | 4.3 | 8.7 | 0.00 | 0.00 | 0.00 | 86 | 1007.9 |
| 20260506060121 | 51 | 317 | 4.3 | 8.7 | 0.00 | 0.00 | 0.00 | 87 | 1007.9 |
| 20260506051116 | 50 | 329 | 3.5 | 7.0 | 0.00 | 0.00 | 0.00 | 88 | 1008.0 |
| 20260506050611 | 50 | 296 | 3.5 | 7.8 | 0.00 | 0.00 | 0.00 | 88 | 1008.0 |
| 20260506050114 | 50 | 329 | 3.5 | 7.8 | 0.00 | 0.00 | 0.00 | 88 | 1008.0 |
| 20260506045110 | 50 | 333 | 3.5 | 7.8 | 0.00 | 0.00 | 0.00 | 87 | 1008.0 |
| 20260506044608 | 50 | 344 | 3.5 | 7.8 | 0.00 | 0.00 | 0.00 | 86 | 1007.9 |
| 20260506044059 | 50 | 349 | 3.5 | 7.0 | 0.00 | 0.00 | 0.00 | 86 | 1008.0 |
| 20260506043553 | 49 | 311 | 3.5 | 7.8 | 0.00 | 0.00 | 0.00 | 86 | 1008.1 |
| 20260506043320 | 49 | 329 | 2.6 | 7.8 | 0.00 | 0.00 | 0.00 | 86 | 1008.1 |
| 20260506042544 | 49 | 355 | 2.6 | 6.1 | 0.00 | 0.00 | 0.00 | 86 | 1008.0 |
| 20260506042044 | 49 | 23 | 3.5 | 7.0 | 0.00 | 0.00 | 0.00 | 85 | 1008.0 |
| 20260506041544 | 49 | 355 | 3.5 | 7.0 | 0.00 | 0.00 | 0.00 | 86 | 1008.1 |
| 20260506041044 | 49 | 328 | 3.5 | 8.7 | 0.00 | 0.00 | 0.00 | 85 | 1008.1 |
| 20260506040543 | 49 | 0 | 3.5 | 8.7 | 0.00 | 0.00 | 0.00 | 85 | 1008.0 |
| 20260506040057 | 49 | 327 | 4.3 | 9.6 | 0.00 | 0.00 | 0.00 | 85 | 1008.1 |
| 20260506035815 | 49 | 311 | 5.2 | 10.4 | 0.00 | 0.00 | 0.00 | 85 | 1008.1 |
| 20260506035043 | 49 | 0 | 5.2 | 10.4 | 0.00 | 0.00 | 0.00 | 85 | 1008.2 |
| 20260506034544 | 49 | 15 | 4.3 | 9.6 | 0.00 | 0.00 | 0.00 | 85 | 1008.2 |
| 20260506034043 | 49 | 347 | 4.3 | 9.6 | 0.00 | 0.00 | 0.00 | 84 | 1008.2 |
| 20260506033543 | 50 | 51 | 4.3 | 11.3 | 0.00 | 0.00 | 0.00 | 84 | 1008.3 |
| 20260506033312 | 50 | 11 | 4.3 | 11.3 | 0.00 | 0.00 | 0.00 | 83 | 1008.2 |
| 20260506032306 | 50 | 343 | 4.3 | 10.4 | 0.00 | 0.00 | 0.00 | 83 | 1008.3 |
| 20260506031535 | 50 | 10 | 5.2 | 10.4 | 0.00 | 0.00 | 0.00 | 83 | 1008.3 |
| 20260506031033 | 50 | 333 | 5.2 | 10.4 | 0.00 | 0.00 | 0.00 | 83 | 1008.4 |
| 20260506030531 | 50 | 335 | 5.2 | 9.6 | 0.00 | 0.00 | 0.00 | 82 | 1008.4 |
| 20260506030031 | 50 | 333 | 4.3 | 9.6 | 0.00 | 0.00 | 0.00 | 82 | 1008.3 |
| 20260506025531 | 50 | 11 | 3.5 | 11.3 | 0.00 | 0.00 | 0.00 | 82 | 1008.5 |
| 20260506025305 | 50 | 30 | 4.3 | 11.3 | 0.00 | 0.00 | 0.00 | 82 | 1008.5 |
| 20260506024531 | 50 | 305 | 5.2 | 11.3 | 0.00 | 0.00 | 0.00 | 82 | 1008.5 |
| 20260506024033 | 50 | 16 | 4.3 | 11.3 | 0.00 | 0.00 | 0.00 | 82 | 1008.6 |
| 20260506023531 | 50 | 61 | 5.2 | 10.4 | 0.00 | 0.00 | 0.00 | 82 | 1008.6 |
| 20260506023032 | 50 | 288 | 6.1 | 10.4 | 0.00 | 0.00 | 0.00 | 81 | 1008.6 |
| 20260506022531 | 50 | 71 | 5.2 | 10.4 | 0.00 | 0.00 | 0.00 | 81 | 1008.5 |
| 20260506022032 | 50 | 14 | 5.2 | 10.4 | 0.00 | 0.00 | 0.00 | 81 | 1008.5 |
| 20260506021802 | 50 | 329 | 6.1 | 11.3 | 0.00 | 0.00 | 0.00 | 81 | 1008.4 |
| 20260506021258 | 50 | 334 | 5.2 | 11.3 | 0.00 | 0.00 | 0.00 | 80 | 1008.4 |
| 20260506020527 | 50 | 329 | 4.3 | 8.7 | 0.00 | 0.00 | 0.00 | 82 | 1008.4 |
| 20260506020027 | 50 | 342 | 4.3 | 10.4 | 0.00 | 0.00 | 0.00 | 82 | 1008.4 |
| 20260506015527 | 50 | 334 | 3.5 | 10.4 | 0.00 | 0.00 | 0.00 | 84 | 1008.5 |
| 20260506015027 | 50 | 351 | 2.6 | 7.0 | 0.00 | 0.00 | 0.00 | 84 | 1008.4 |
| 20260506014527 | 50 | 311 | 3.5 | 7.0 | 0.00 | 0.00 | 0.00 | 84 | 1008.5 |
| 20260506014025 | 50 | 0 | 3.5 | 5.2 | 0.00 | 0.00 | 0.00 | 84 | 1008.5 |
| 20260506013532 | 50 | 341 | 2.6 | 5.2 | 0.00 | 0.00 | 0.00 | 84 | 1008.5 |
| 20260506013025 | 50 | 17 | 3.5 | 6.1 | 0.00 | 0.00 | 0.00 | 84 | 1008.5 |
| 20260506012525 | 50 | 329 | 3.5 | 7.8 | 0.00 | 0.00 | 0.00 | 84 | 1008.5 |
| 20260506012027 | 49 | 355 | 3.5 | 7.8 | 0.00 | 0.00 | 0.00 | 84 | 1008.6 |
| 20260506011525 | 50 | 351 | 3.5 | 7.8 | 0.00 | 0.00 | 0.00 | 84 | 1008.6 |
| 20260506011025 | 49 | 340 | 3.5 | 7.0 | 0.00 | 0.00 | 0.00 | 84 | 1008.6 |
| 20260506010519 | 49 | 337 | 3.5 | 7.0 | 0.00 | 0.00 | 0.00 | 84 | 1008.7 |
| 20260506010011 | 49 | 309 | 2.6 | 7.0 | 0.00 | 0.00 | 0.00 | 84 | 1008.7 |
| 20260506005509 | 49 | 322 | 2.6 | 7.0 | 0.00 | 0.00 | 0.00 | 84 | 1008.7 |
| 20260506004511 | 49 | 12 | 3.5 | 7.0 | 0.00 | 0.00 | 0.00 | 83 | 1008.9 |
| 20260506004011 | 49 | 298 | 3.5 | 7.0 | 0.00 | 0.00 | 0.00 | 83 | 1009.1 |
| 20260506003509 | 49 | 290 | 3.5 | 7.0 | 0.00 | 0.00 | 0.00 | 83 | 1009.0 |
| 20260506003011 | 50 | 355 | 3.5 | 7.0 | 0.00 | 0.00 | 0.00 | 83 | 1009.0 |
| 20260506002509 | 50 | 309 | 3.5 | 7.0 | 0.00 | 0.00 | 0.00 | 82 | 1008.9 |
| 20260506002009 | 50 | 311 | 3.5 | 7.0 | 0.00 | 0.00 | 0.00 | 82 | 1009.1 |
| 20260506001514 | 50 | 332 | 3.5 | 7.0 | 0.00 | 0.00 | 0.00 | 82 | 1009.1 |
| 20260506001242 | 50 | 311 | 3.5 | 7.8 | 0.00 | 0.00 | 0.00 | 82 | 1009.1 |
| 20260506000742 | 50 | 355 | 4.3 | 7.8 | 0.00 | 0.00 | 0.00 | 82 | 1009.3 |
| 20260506000000 | 50 | 14 | 4.3 | 7.8 | 0.00 | 0.00 | 0.00 | 81 | 1009.1 |
| 20260505235453 | 50 | 350 | 4.3 | 7.8 | 0.00 | 0.00 | 0.00 | 81 | 1009.2 |
| 20260505234948 | 50 | 355 | 4.3 | 9.6 | 0.00 | 0.00 | 0.00 | 81 | 1009.2 |
| 20260505234448 | 50 | 355 | 4.3 | 9.6 | 0.00 | 0.00 | 0.00 | 81 | 1009.3 |
| 20260505233949 | 50 | 335 | 4.3 | 7.8 | 0.00 | 0.00 | 0.00 | 80 | 1009.3 |
| 20260505233449 | 50 | 355 | 5.2 | 7.8 | 0.00 | 0.00 | 0.00 | 80 | 1009.3 |
| 20260505232950 | 50 | 336 | 5.2 | 12.2 | 0.00 | 0.00 | 0.00 | 80 | 1009.3 |
| 20260505232447 | 50 | 340 | 5.2 | 12.2 | 0.00 | 0.00 | 0.00 | 80 | 1009.4 |
| 20260505232219 | 50 | 305 | 4.3 | 9.6 | 0.00 | 0.00 | 0.00 | 80 | 1009.4 |
| 20260505231717 | 50 | 332 | 4.3 | 8.7 | 0.00 | 0.00 | 0.00 | 80 | 1009.4 |
| 20260505230947 | 50 | 313 | 4.3 | 8.7 | 0.00 | 0.00 | 0.00 | 80 | 1009.5 |
| 20260505230501 | 50 | 348 | 4.3 | 8.7 | 0.00 | 0.00 | 0.00 | 79 | 1009.5 |
| 20260505225447 | 49 | 342 | 4.3 | 7.8 | 0.00 | 0.00 | 0.00 | 80 | 1009.6 |
| 20260505224943 | 49 | 28 | 3.5 | 7.0 | 0.00 | 0.00 | 0.00 | 80 | 1009.6 |
| 20260505223941 | 49 | 318 | 2.6 | 6.1 | 0.00 | 0.00 | 0.00 | 80 | 1009.6 |
| 20260505223439 | 49 | 11 | 2.6 | 5.2 | 0.00 | 0.00 | 0.00 | 81 | 1009.6 |
| 20260505222939 | 49 | 355 | 2.6 | 5.2 | 0.00 | 0.00 | 0.00 | 81 | 1009.7 |
| 20260505222439 | 49 | 0 | 2.6 | 6.1 | 0.00 | 0.00 | 0.00 | 81 | 1009.7 |
| 20260505221940 | 49 | 338 | 2.6 | 6.1 | 0.00 | 0.00 | 0.00 | 81 | 1009.7 |
| 20260505221439 | 49 | 355 | 2.6 | 4.3 | 0.00 | 0.00 | 0.00 | 81 | 1009.7 |
| 20260505220939 | 49 | 342 | 2.6 | 5.2 | 0.00 | 0.00 | 0.00 | 81 | 1009.8 |
| 20260505220441 | 49 | 5 | 2.6 | 5.2 | 0.00 | 0.00 | 0.00 | 81 | 1009.8 |
| 20260505215938 | 49 | 355 | 1.7 | 4.3 | 0.00 | 0.00 | 0.00 | 81 | 1009.9 |
| 20260505215438 | 49 | 319 | 2.6 | 4.3 | 0.00 | 0.00 | 0.00 | 81 | 1009.9 |
| 20260505214938 | 49 | 338 | 2.6 | 4.3 | 0.00 | 0.00 | 0.00 | 81 | 1009.9 |
| 20260505214439 | 49 | 339 | 2.6 | 6.1 | 0.00 | 0.00 | 0.00 | 80 | 1009.9 |
| 20260505213940 | 49 | 338 | 3.5 | 6.1 | 0.00 | 0.00 | 0.00 | 80 | 1009.9 |
| 20260505213437 | 50 | 335 | 3.5 | 5.2 | 0.00 | 0.00 | 0.00 | 80 | 1010.0 |
| 20260505212938 | 50 | 336 | 3.5 | 7.0 | 0.00 | 0.00 | 0.00 | 79 | 1009.9 |
| 20260505212438 | 50 | 335 | 3.5 | 7.0 | 0.00 | 0.00 | 0.00 | 79 | 1010.0 |
| 20260505211939 | 50 | 10 | 4.3 | 7.8 | 0.00 | 0.00 | 0.00 | 79 | 1009.9 |
| 20260505211432 | 50 | 338 | 4.3 | 8.7 | 0.00 | 0.00 | 0.00 | 79 | 1009.9 |
| 20260505210932 | 50 | 332 | 4.3 | 8.7 | 0.00 | 0.00 | 0.00 | 78 | 1010.0 |
| 20260505210433 | 50 | 323 | 4.3 | 8.7 | 0.00 | 0.00 | 0.00 | 78 | 1010.0 |
| 20260505205931 | 50 | 355 | 4.3 | 9.6 | 0.00 | 0.00 | 0.00 | 78 | 1010.0 |
| 20260505205430 | 51 | 330 | 4.3 | 9.6 | 0.00 | 0.00 | 0.00 | 78 | 1010.0 |
| 20260505204930 | 51 | 5 | 4.3 | 9.6 | 0.00 | 0.00 | 0.00 | 78 | 1010.0 |
| 20260505204432 | 51 | 0 | 5.2 | 9.6 | 0.00 | 0.00 | 0.00 | 78 | 1010.1 |
| 20260505203929 | 51 | 322 | 5.2 | 9.6 | 0.00 | 0.00 | 0.00 | 78 | 1010.1 |